map of OHS home
OHS - Airport
Location
City:  Sohar, Oman
Near (Alt.):Majis
ICAO:OOSH
IATA:OHS

Details
Type:Airport (Aerodrome, Airfield)
Latitude:2423'10"N (24.386167)
Longitude:5637'32"E (56.625667)
Elevation:105 ft (32 m)
Variation:1.81E (WMM2015 magnetic declination)
0.05 annual change
Runways:1
Longest:13100 ft (3993 m), paved

Time
Time Zone:UTC+4
Local Time:

Weather
METAR:OOSH 111850Z AUTO VRB00KT //// 25/11 Q1015 RMK 1012
TAF:OOSH 111700Z 1118/1224 VRB03KT 8000 NSC
BECMG 1206/1208 04010KT
BECMG 1216/1218 VRB02KT

Related Locations
Nearby:
Farthest:GMR: 11713 mi / 18850 km
Mangareva [Totegegie], Gambier Islands, PF

Find:

   beyond  
but within

Other Information
Maps:
NOTAMs:
Links:
Sources:

  
  • flag of Oman
  

Sectional Chart

Flight Planning
at skyvector.com

Satellite Image

Google Maps Satellite view

 

Copyright © 2004-2018 Karl L. Swartz. All rights reserved.
The Great Circle Mapper name and logo are trademarks of the Great Circle Mapper.
All other trademarks mentioned herein belong to their respective owners.
Please see credits for attibutions and further copyright information.

  Follow gcmap on Facebook Follow gcmap on Twitter Follow gcmap on Google+ GCmap on LinkedIn

hCard Microformat

Geo Microformat